Regional Weather Roundup
Issued by NWS

Home | Current Version | Previous Version | Graphics & Text | Print | Product List | Glossary On
Versions: 1 2 3 4 5 6 7 8 9 10 11 12 13 14 15 16 17 18 19 20 21 22 23 24 25 26 27 28 29 30 31 32 33 34 35 36 37 38 39 40 41 42 43 44 45 46 47 48 49 50
000
ASUS45 KBOU 310407
RWRCO

WEATHER ROUNDUP FOR COLORADO
NATIONAL WEATHER SERVICE DENVER/BOULDER CO
1000 PM MDT MON MAY 30 2016

NOTE: "FAIR" INDICATES FEW OR NO CLOUDS BELOW 12000 FEET WITH NO
SIGNIFICANT WEATHER AND/OR OBSTRUCTIONS TO VISIBILITY.

COZ001>005-013-030-031-310500-
...NORTHWEST COLORADO...

CITY           SKY/WX    TMP DP  RH WIND       PRES   REMARKS
CRAIG          CLOUDY    57  41  55 S3        30.11R
HAYDEN         FAIR      55  36  47 CALM      30.12R
MEEKER         MOCLDY    53  42  66 NE6       30.12R
MOUNT WERNER   NOT AVBL
STEAMBOAT SPGS MOCLDY    55  37  50 SE7       30.14R
WALDEN         NOT AVBL
$$

COZ006>008-011-310500-
...WEST CENTRAL VALLEYS...

CITY           SKY/WX    TMP DP  RH WIND       PRES   REMARKS
GRAND JUNCTION FAIR      62  30  29 NE5       30.00R
MONTROSE       FAIR      61  34  36 E13       30.09R
EAGLE          FAIR      54  39  58 CALM      30.17R
RIFLE          FAIR      52  38  58 SE6       30.08R
DELTA          FAIR      67  32  27 SE12      30.05R
NUCLA          FAIR      61  32  33 E10       30.10R
$$

COZ017>023-064>068-310500-
...SOUTHWEST COLORADO...

CITY           SKY/WX    TMP DP  RH WIND       PRES   REMARKS
DURANGO        FAIR      59  27  29 N5        30.07R
CORTEZ         FAIR      56  30  37 N5        30.05R
PAGOSA SPRINGS FAIR      58  17  19 CALM      30.14R
TELLURIDE      FAIR      47  32  55 SE7       30.28S
WOLF CREEK PAS FAIR      36  25  64 NE13      30.43R
$$

COZ009-010-012-014-032>034-037-058>063-310500-
...CENTRAL COLORADO...

CITY           SKY/WX    TMP DP  RH WIND       PRES   REMARKS
ASPEN          FAIR      45  37  73 S7        30.22R
BUENA VISTA    FAIR      50  31  47 NW7       30.21S
COPPER MTN     NOT AVBL
BERTHOUD PASS  FAIR      28  19  69 N15G26    30.41R WCI  17
COTTONWOOD PAS FAIR      48  28  46 W6        30.31S
GUNNISON       FAIR      50  34  53 N6        30.23R
KREMMLING      FAIR      43  37  81 N5        30.21S
LEADVILLE      FAIR      37  29  72 CALM      30.31R
MONARCH PASS   FAIR      37  27  65 W14       30.51S
SALIDA         FAIR      58  31  36 NW9       30.27R
SUNLIGHT       FAIR      43  25  49 CALM      30.38R
WILKERSON PASS FAIR      41  23  48 W7        30.39F
$$

COZ069>075-310500-
...SAN LUIS VALLEY/SANGRE DE CRISTO MOUNTAINS...

CITY           SKY/WX    TMP DP  RH WIND       PRES   REMARKS
ALAMOSA        FAIR      54  32  43 N9        30.15R
LA VETA PASS   FAIR      45  30  57 NE6       30.33R
SAGUACHE       FAIR      50  30  46 N8        30.20R
$$

COZ035-036-038>040-310500-
...NORTHERN COLORADO FRONT RANGE...

CITY           SKY/WX    TMP DP  RH WIND       PRES   REMARKS
DENVER INTL AP MOCLDY    57  45  64 W6        30.05R
DMNS CITY PARK   N/A     58  42  55 E8        30.05S
AURORA         MOCLDY    56  43  61 S6        30.07R
FRONT RANGE AP NOT AVBL
ERIE MUNI ARPT FAIR      53  42  67 SW8       30.03S
BOULDER MUN AP FAIR      59  36  41 S6        30.04S
CENTENNIAL     MOCLDY    54  41  61 S5        30.08R
BROOMFIELD     MOCLDY    57  36  44 SW6       30.07R
FORT COLLINS   FAIR      61  43  51 CALM      30.02S
LONGMONT       FAIR      66  36  32 W12       30.03F
$$

COZ041-046-047-076>085-087-088-310500-
...PIKES PEAK/PALMER DIVIDE AND SOUTHERN FOOTHILLS...

CITY           SKY/WX    TMP DP  RH WIND       PRES   REMARKS
COLO. SPRINGS  FAIR      56  39  53 N12       30.10S
A. F. ACADEMY  FAIR      54  37  54 NW7       30.10R
SCHRIEVER AFB  NOT AVBL
ELLICOTT       NOT AVBL
FALCON         FAIR      52  38  58 N5        30.14S
FORT CARSON    CLOUDY    58  40  52 N5        30.08R
LIMON          FAIR      50  46  86 SW5       30.07R
MONUMENT HILL  FAIR      46  41  81 S5        30.16R
TRINIDAD       FAIR      64  37  36 N18G30    30.04R
$$

COZ042>045-048>051-090-091-310500-
...NORTHEAST COLORADO...

CITY           SKY/WX    TMP DP  RH WIND       PRES   REMARKS
GREELEY ARPT   FAIR      59  46  63 SW8       30.01F
AKRON          FAIR      53  47  79 SW8       30.01R
BURLINGTON     FAIR      58  48  69 S3        30.00F
WRAY           FAIR      61  50  67 E7        29.98R
STERLING       FAIR      52  50  93 CALM      29.99R
HOLYOKE        FAIR      61  50  67 NW8       29.96S
FORT MORGAN    FAIR      53  47  79 W7        30.01R
$$

COZ086-089-092>099-310500-
...SOUTHEAST COLORADO...

CITY           SKY/WX    TMP DP  RH WIND       PRES   REMARKS
PUEBLO         FAIR      66  46  48 NE8       30.01R
LA JUNTA       MOCLDY    66  47  50 NW16      29.97R
LAMAR          FAIR      63  45  51 E8        29.92R
SPRINGFIELD      N/A     60  45  57 N14       29.96S
$$



USA.gov is the U.S. government's official web portal to all federal, state and local government web resources and services.